Location: Dehesa de la Cepeda
(40.6574°N, 4.3013°W)
Time: 02:56:48
(UTC+00:00)

Courier 1B - Pass Details

Date: 07 August 2021
Orbit: 963 x 1209 km, 28.3° (Epoch: 17 September)

Event Time Altitude Azimuth Distance (km) Brightness Sun altitude
Rises 17:01:26 0° 234° (SW) 4,005 11.5 25.8°
Reaches altitude 10° 17:04:37 10° 223° (SW) 3,076 10.9 25.2°
Maximum altitude 17:10:56 28° 168° (SSE) 2,059 9.3 24.0°
Drops below altitude 10° 17:17:22 10° 113° (ESE) 3,142 9.7 22.8°
Sets 17:20:40 0° 102° (ESE) 4,105 10.2 22.2°
